Piney Island, NC

6:15 PM EDT on April 28, 2017 (GMT -0400)
Piney Island

Weather History for KNBT - October, 2012

Change the Weather History Date:

Monday, October 29, 2012

  Actual Average (KMRH) Record (KMRH)
Temperature  
Mean Temperature 54 °F -  
Max Temperature 59 °F 71 °F 79 °F (1950)
Min Temperature 50 °F 51 °F 27 °F (1976)
Degree Days  
Heating Degree Days 10    
Growing Degree Days 4 (Base 50)    
Moisture  
Dew Point 40 °F    
Average Humidity 68    
Maximum Humidity 68    
Minimum Humidity 68    
Precipitation  
Precipitation 0.01 in - - ()
Sea Level Pressure  
Sea Level Pressure 29.34 in    
Wind  
Wind Speed 27 mph (West)    
Max Wind Speed 33 mph    
Max Gust Speed 51 mph    
Visibility 10 miles    
Events Rain    
Averages and records for this station are not official NWS values.
T = Trace of Precipitation, MM = Missing Value Source: NWS Daily Summary

Daily Weather History Graph

Daily Weather History Graph

Search for Another Location

Airport or City:

Trip Planner

Search our weather history database for the weather conditions in past years. The results will help you decide how hot, cold, wet, or windy it might be!

Date:

Astronomy

Oct. 29, 2012 Rise Set
Actual Time 7:24 AM EDT 6:14 PM EDT
Civil Twilight 6:58 AM EDT 6:40 PM EDT
Nautical Twilight 6:28 AM EDT 7:09 PM EDT
Astronomical Twilight 5:59 AM EDT 7:39 PM EDT
Moon 6:06 PM EDT (10/29) 7:11 AM EDT (10/29)
Length of Visible Light 11h 41m
Length of Day
10h 49m
Full, 100% of the Moon is Illuminated
Oct 29
Full
Oct 29
Full
Nov 6
Last Quarter
Nov 13
New
Nov 20
First Quarter

Hourly Weather History & Observations

Time (EDT) Temp. Dew Point Humidity Pressure Visibility Wind Dir Wind Speed Gust Speed Precip Events Conditions
12:32 AM 59.0 °F - N/A% 29.36 in 10.0 mi NW 28.8 mph 39.1 mph N/A   Overcast
12:56 AM 59.0 °F - N/A% 29.37 in 10.0 mi NW 28.8 mph 42.6 mph N/A   Overcast
1:56 AM 55.9 °F - N/A% 29.36 in 10.0 mi WNW 28.8 mph 36.8 mph N/A   Overcast
2:56 AM 57.0 °F - N/A% 29.35 in 9.0 mi WNW 33.4 mph 40.3 mph N/A   Overcast
3:56 AM 57.0 °F - N/A% 29.34 in 10.0 mi WNW 27.6 mph 39.1 mph N/A   Overcast
4:56 AM 57.9 °F - N/A% 29.36 in 10.0 mi WNW 27.6 mph 38.0 mph N/A   Overcast
5:37 AM 57.2 °F - N/A% 29.35 in 10.0 mi WNW 23.0 mph 38.0 mph 0.00 in   Unknown
5:56 AM 57.0 °F - N/A% 29.37 in 10.0 mi North - - 0.00 in   Unknown
6:32 AM 57.2 °F - N/A% 29.36 in 10.0 mi West 27.6 mph 38.0 mph 0.01 in   Overcast
6:56 AM 55.9 °F - N/A% 29.37 in 10.0 mi West 26.5 mph 36.8 mph 0.01 in   Overcast
7:45 AM 55.4 °F - N/A% 29.36 in 7.0 mi West 28.8 mph 40.3 mph 0.00 in Rain Light Rain
7:56 AM 55.0 °F - N/A% 29.37 in 10.0 mi WNW 31.1 mph 41.4 mph 0.00 in   Overcast
8:03 AM 55.4 °F - N/A% 29.36 in 7.0 mi West 33.4 mph 41.4 mph 0.00 in Rain Light Rain
8:19 AM 55.4 °F - N/A% 29.36 in 10.0 mi WNW 33.4 mph 47.2 mph 0.00 in Rain Light Rain
8:56 AM 55.9 °F - N/A% 29.37 in 10.0 mi WNW 29.9 mph 50.6 mph 0.00 in Rain Light Rain
9:56 AM 57.0 °F - N/A% 29.36 in 10.0 mi WNW 29.9 mph 39.1 mph 0.00 in   Mostly Cloudy
10:56 AM 57.9 °F - N/A% 29.35 in 10.0 mi WNW 23.0 mph 36.8 mph N/A   Mostly Cloudy
11:56 AM 57.0 °F - N/A% 29.35 in 10.0 mi West 27.6 mph 39.1 mph N/A   Overcast
12:56 PM 55.9 °F - N/A% 29.35 in 10.0 mi West 21.9 mph 33.4 mph N/A   Overcast
1:56 PM 54.0 °F - N/A% 29.33 in 10.0 mi West 26.5 mph 34.5 mph N/A   Overcast
2:56 PM 55.0 °F - N/A% 29.32 in - North - - N/A   Overcast
3:07 PM 55.4 °F - N/A% 29.30 in - North - - N/A   Unknown
3:47 PM 55.4 °F - N/A% 29.30 in 10.0 mi West 25.3 mph 38.0 mph N/A   Overcast
3:56 PM 55.0 °F - N/A% 29.31 in 10.0 mi West 21.9 mph 38.0 mph N/A   Overcast
4:45 PM 55.4 °F - N/A% 29.29 in 10.0 mi West 21.9 mph 35.7 mph N/A   Mostly Cloudy
4:56 PM 55.0 °F - N/A% 29.31 in 10.0 mi West 23.0 mph 31.1 mph N/A   Mostly Cloudy
5:24 PM 55.4 °F - N/A% 29.29 in 10.0 mi West 24.2 mph 36.8 mph N/A   Overcast
5:56 PM 54.0 °F - N/A% 29.31 in 10.0 mi West 26.5 mph 41.4 mph N/A   Overcast
6:56 PM 53.1 °F - N/A% 29.33 in 10.0 mi West 23.0 mph 40.3 mph 0.00 in   Overcast
7:05 PM 53.6 °F - N/A% 29.31 in 10.0 mi WSW 16.1 mph 28.8 mph N/A   Overcast
7:13 PM 53.6 °F - N/A% 29.31 in 10.0 mi WSW 26.5 mph 36.8 mph N/A   Overcast
7:56 PM 52.0 °F - N/A% 29.34 in 10.0 mi West 23.0 mph 39.1 mph N/A   Overcast
8:56 PM 51.1 °F - N/A% 29.34 in 10.0 mi WSW 23.0 mph 34.5 mph N/A   Overcast
9:56 PM 51.1 °F - N/A% 29.35 in 10.0 mi WSW 25.3 mph 36.8 mph N/A   Overcast
10:56 PM 50.0 °F - N/A% 29.36 in 10.0 mi WSW 19.6 mph 34.5 mph 0.00 in   Overcast
11:09 PM 50.0 °F - N/A% 29.35 in 10.0 mi WSW 24.2 mph 38.0 mph N/A   Overcast
11:56 PM 50.0 °F 39.9 °F 68% 29.37 in 10.0 mi WSW 20.7 mph 34.5 mph 0.00 in   Overcast